Theta_e
301 299 298 299 298 297 297 297 296 296 296 298 297 296 297 297 298 298 298 302 305 303 303 303 301 304 309 307 307 312 321 320 318 318 315 299 302 296 296 298 296 296 297 298 299
303 299 298 298 297 297 297 297 296 296 296 297 298 298 297 297 298 296 299 302 300 301 302 302 307 307 304 305 303 315 321 320 308 307 305 299 299 297 297 297 297 296 296 297 299
302 300 298 296 297 297 297 297 297 296 296 297 298 297 298 299 297 295 297 298 300 302 302 302 303 305 305 302 300 303 319 304 300 298 298 298 298 297 297 297 296 296 295 296 298
299 296 296 296 296 296 296 297 297 296 297 297 298 299 299 297 301 297 298 299 301 303 302 302 302 305 306 307 299 306 299 299 297 297 297 298 297 297 295 298 296 294 294 296 296
295 295 295 296 296 296 296 297 297 297 297 297 298 300 298 296 296 297 298 300 301 302 300 300 303 303 305 299 300 302 298 296 296 295 296 296 296 296 294 294 295 293 294 295 295
295 295 296 296 296 296 296 297 297 297 297 297 298 298 297 298 297 297 299 300 300 300 298 298 300 299 298 296 300 295 295 296 296 295 296 297 296 296 296 293 293 293 293 293 294
296 295 295 296 296 296 296 297 297 297 297 297 298 298 295 296 297 298 299 299 299 299 297 297 297 298 296 296 295 296 298 298 296 295 297 295 297 296 294 293 293 293 293 293 293
297 296 296 296 296 296 296 297 298 297 297 298 299 297 296 296 297 298 299 299 300 300 299 298 297 294 295 294 294 297 296 298 297 295 296 296 301 298 295 293 294 293 292 292 293
299 297 296 297 297 296 297 297 297 297 298 298 297 296 297 296 297 297 298 299 299 299 299 298 297 295 295 295 296 295 298 297 298 294 295 297 299 298 293 293 294 293 293 292 293
300 298 296 297 297 297 297 298 299 297 297 298 297 297 295 295 296 296 298 298 298 297 298 296 294 295 294 295 299 298 298 297 298 296 295 296 297 297 296 294 295 294 293 292 292
301 300 297 297 298 297 297 298 295 296 294 294 294 295 294 296 296 296 297 297 297 297 298 295 297 297 297 296 295 296 297 298 297 295 295 295 295 297 296 294 295 294 293 293 293
301 300 298 297 298 296 297 295 295 296 295 293 294 294 294 295 296 295 297 298 298 298 296 297 298 296 296 296 297 298 299 299 297 295 296 295 297 299 298 295 295 297 294 294 293
302 301 298 297 297 296 296 296 296 297 293 296 295 294 294 295 295 296 296 296 296 297 295 298 296 295 296 297 298 297 299 298 298 295 294 293 299 301 298 294 294 293 292 291 293
303 302 299 298 297 294 295 295 296 297 293 298 296 294 295 295 296 295 295 296 295 295 294 295 294 296 297 297 296 299 296 296 297 298 302 294 303 302 299 297 296 295 293 292 291
303 303 300 297 296 295 295 295 298 297 301 297 295 294 295 296 294 296 295 296 296 296 296 297 295 297 298 297 295 297 295 296 296 296 297 298 299 301 297 302 301 298 295 293 291
305 304 302 299 296 295 295 298 297 301 300 295 294 295 297 295 295 294 297 294 293 295 294 294 293 295 295 294 295 294 296 296 296 297 302 298 298 302 302 302 300 299 297 295 293
308 305 304 302 297 296 298 296 301 301 296 295 292 295 296 296 296 295 297 296 297 296 296 296 295 293 293 296 295 297 299 303 304 302 306 295 297 302 300 300 299 299 297 295 293
310 307 305 304 302 296 296 297 295 295 293 294 294 295 296 294 296 295 295 293 295 296 292 297 299 294 292 294 296 296 297 303 302 303 302 296 300 303 298 297 295 294 294 293 293
311 307 305 306 302 296 296 294 303 296 297 295 295 293 290 294 294 295 294 292 294 295 298 295 297 292 293 292 294 296 297 295 296 289 297 298 298 299 299 297 296 296 295 294 293
309 303 303 305 300 294 300 306 295 297 294 294 298 295 291 290 293 295 293 294 296 294 289 295 297 293 293 292 292 295 294 297 295 298 297 300 299 303 304 304 300 299 296 295 293
306 303 301 300 296 295 307 304 296 294 294 295 296 293 294 291 291 289 294 294 295 294 291 287 295 294 292 292 294 293 293 292 292 297 300 299 301 297 299 301 300 298 296 294 293
302 305 299 295 299 297 301 296 296 294 294 294 294 295 295 293 291 289 293 294 292 292 296 292 292 293 293 291 290 292 294 295 299 296 293 298 298 297 296 296 295 295 295 294 293
301 301 295 294 307 300 296 296 295 294 294 294 294 293 294 295 295 293 293 293 291 293 293 292 291 290 295 292 290 289 293 294 293 293 293 299 301 296 295 295 294 294 294 294 293
300 304 296 294 296 305 305 302 303 293 296 293 294 293 294 295 293 293 294 294 292 292 296 294 291 296 302 300 291 290 289 292 292 291 295 297 300 299 301 300 297 295 293 293 293
301 302 299 299 299 302 305 308 308 306 293 292 293 294 294 294 294 293 294 293 293 294 296 291 290 288 289 292 288 290 287 292 294 296 298 302 297 299 299 300 298 294 293 292 292
300 302 296 301 300 301 305 310 311 309 296 296 296 293 294 302 302 297 294 293 295 293 293 289 289 285 287 291 292 293 293 291 294 295 295 296 296 298 299 298 297 297 294 293 293
297 299 298 304 301 302 306 306 309 309 303 306 297 299 295 296 299 301 295 294 296 295 295 289 287 289 293 292 291 294 294 292 294 293 296 297 299 300 300 299 297 295 293 293 294
Wind_Speed
15 14 14 13 13 14 12 12 11 11 12 11 12 7 1 7 8 10 7 10 12 15 12 4 2 5 2 3 4 3 4 3 7 7 3 2 4 1 2 2 0 2 3 5 8
15 14 13 14 14 14 14 12 12 11 11 11 9 9 9 4 4 11 11 14 11 10 4 5 3 3 4 3 3 4 3 7 3 3 4 4 3 5 3 2 3 2 3 6 7
16 16 16 14 15 15 15 13 11 10 9 9 8 8 9 2 2 3 19 14 6 7 3 3 2 2 5 4 4 2 3 5 3 2 3 4 2 2 5 5 8 9 8 10 9
16 16 16 15 16 16 15 14 12 10 9 8 10 7 4 3 1 8 18 13 5 4 3 2 4 3 4 4 3 5 3 3 2 1 2 2 1 3 6 5 3 8 8 8 8
17 16 16 16 16 16 14 15 12 12 8 7 9 6 3 5 2 13 14 10 5 4 6 2 4 3 5 3 2 4 2 4 3 4 2 1 3 5 8 10 3 6 7 8 9
17 17 17 17 17 16 14 16 10 7 7 6 6 7 2 4 4 13 10 10 9 6 6 7 3 4 6 4 4 2 4 4 3 3 1 0 2 3 5 6 8 7 9 8 9
18 18 18 18 19 20 17 16 10 5 6 5 5 3 5 3 4 13 7 12 14 8 4 4 4 4 5 4 4 4 3 1 3 4 1 2 6 11 4 3 9 9 9 9 12
20 19 19 20 20 18 19 14 6 4 3 2 2 2 2 2 3 12 7 7 9 10 11 8 11 8 4 3 5 4 4 1 0 5 1 1 8 2 2 7 10 10 9 8 9
21 20 20 21 22 18 18 8 4 2 2 1 1 1 1 2 2 11 10 4 4 7 8 5 5 4 3 5 4 5 2 4 2 3 3 3 8 3 4 7 9 11 11 10 9
21 21 20 21 21 18 15 2 2 1 1 0 2 3 3 2 5 8 5 4 5 0 3 7 5 4 4 4 4 5 3 3 4 2 2 4 16 14 9 7 13 13 12 11 11
21 22 20 21 20 19 12 1 6 2 10 1 0 1 2 6 2 6 6 1 2 8 3 4 5 2 1 0 2 4 3 3 2 2 3 5 9 20 9 9 15 14 13 13 15
22 23 21 19 14 17 8 7 3 1 4 1 1 3 2 2 0 3 7 2 3 3 2 4 2 3 2 1 2 2 2 3 3 1 1 4 16 21 9 8 11 15 11 15 10
21 23 22 20 6 7 17 7 3 1 1 1 0 1 2 2 3 4 4 2 5 4 2 5 4 3 2 2 2 1 1 0 2 6 0 7 8 7 1 3 5 7 6 7 13
19 22 22 16 3 7 5 5 2 1 5 3 0 1 1 1 2 2 3 2 4 5 4 5 3 3 2 2 1 2 2 2 3 5 3 4 5 8 4 8 6 7 8 8 8
17 18 20 13 4 4 4 5 3 2 4 1 2 2 2 1 1 2 2 2 6 5 4 3 5 3 2 2 1 2 2 3 1 2 3 2 1 9 4 6 5 5 7 6 5
15 16 15 8 5 3 4 2 1 6 6 4 3 3 2 4 2 4 1 7 3 4 5 3 1 1 3 2 3 6 4 3 3 2 2 1 3 6 4 3 5 4 3 3 3
15 15 13 10 5 7 4 2 5 4 2 5 2 3 1 1 1 3 1 2 4 5 1 2 2 1 1 4 2 1 3 3 5 3 4 0 1 11 5 5 2 3 4 3 5
17 16 14 13 9 4 3 6 3 3 6 1 2 2 1 4 1 2 2 2 3 4 3 5 5 4 1 1 3 3 2 4 6 2 3 3 6 6 6 2 5 7 5 5 5
19 17 9 10 6 3 5 2 8 8 5 7 1 4 4 2 2 1 5 5 7 9 8 5 2 0 2 2 1 4 2 4 6 2 3 3 7 11 4 6 8 9 5 8 7
17 4 7 11 11 4 3 7 5 5 7 3 7 4 5 3 2 4 2 4 5 2 2 4 3 2 1 1 4 1 4 3 3 1 4 4 5 7 4 2 2 3 9 9 7
11 1 4 15 14 3 6 7 7 7 4 8 9 5 6 6 6 4 5 4 4 4 5 4 3 2 3 6 8 3 1 4 3 4 5 2 6 7 6 4 5 6 5 7 7
5 3 11 21 1 1 6 9 7 6 2 4 2 6 9 8 7 3 8 6 6 7 9 7 5 4 7 3 3 3 4 6 4 6 3 2 7 4 7 9 6 9 8 7 7
3 2 8 6 6 4 2 4 7 7 6 8 9 8 4 8 1 7 5 0 8 7 7 7 2 2 6 3 4 4 5 2 5 2 7 5 5 3 5 7 8 9 8 8 7
0 3 2 1 1 5 8 6 8 4 6 6 4 5 4 5 4 5 6 3 6 4 1 6 2 7 8 6 5 5 6 6 6 3 4 10 8 11 19 18 9 9 10 9 9
4 5 4 5 8 11 7 8 18 14 5 8 4 7 9 7 6 7 3 0 1 6 3 5 6 3 3 2 3 5 5 11 13 15 10 8 15 16 21 19 8 6 4 7 10
4 3 1 2 3 17 18 19 21 17 12 7 9 12 12 20 17 10 10 7 7 3 7 2 4 3 4 1 3 4 9 11 16 10 18 19 27 19 22 19 21 18 9 10 12
9 7 2 3 5 9 12 17 17 13 11 20 20 15 15 27 9 8 4 3 4 13 12 8 6 4 6 2 4 8 17 16 10 8 13 16 28 18 19 15 12 7 9 11 14
Wind_Direction
25 23 14 14 8 12 10 359 359 3 360 9 10 24 28 14 49 66 45 335 317 329 338 349 103 136 93 69 47 136 81 170 188 161 174 160 152 293 332 127 112 228 169 161 150
17 14 11 6 5 5 3 3 358 357 1 358 17 20 6 350 88 63 359 338 333 337 13 34 65 101 53 53 19 82 123 198 153 148 157 159 189 165 163 184 229 259 237 179 173
9 7 4 3 2 358 359 355 357 349 356 355 339 345 3 37 113 340 349 351 350 347 64 62 38 62 67 44 1 16 153 154 179 143 123 145 205 184 159 230 213 195 192 193 199
5 2 359 359 356 353 354 351 345 344 341 357 349 343 358 27 227 341 353 355 15 52 81 78 30 55 78 81 359 82 46 55 120 68 111 174 54 255 200 244 243 197 178 179 198
360 358 354 352 350 347 346 346 341 337 342 350 4 16 27 53 360 347 358 11 49 91 68 70 64 99 93 90 80 81 129 65 70 67 63 337 263 267 253 238 258 191 189 199 206
1 358 351 349 344 341 338 340 328 334 341 350 343 6 26 83 355 352 16 45 64 77 62 46 119 126 101 70 65 98 96 119 59 18 112 20 248 43 267 206 207 202 218 222 217
1 357 352 349 344 342 338 334 320 300 332 333 335 356 57 136 14 10 37 48 51 75 90 62 116 85 143 98 155 124 78 66 21 357 334 53 277 234 235 138 203 217 226 229 229
358 354 351 349 346 341 340 335 325 307 309 306 355 355 96 6 6 18 40 57 58 71 88 82 94 103 65 128 38 73 63 99 103 357 90 318 270 264 204 169 217 228 234 235 236
355 354 352 348 345 342 341 338 345 12 23 182 263 170 151 20 16 7 21 12 46 67 71 69 58 86 65 87 41 15 199 219 299 58 307 188 274 268 154 189 227 229 231 232 245
353 354 352 348 344 344 342 337 43 305 330 254 35 40 16 324 320 341 8 28 73 40 41 46 50 66 40 87 210 189 205 241 248 330 332 236 265 266 241 214 233 233 232 230 231
351 354 354 349 348 351 355 313 23 338 44 89 112 292 317 327 302 7 357 340 85 54 54 14 70 182 144 184 112 123 145 219 219 162 306 232 271 275 238 226 245 241 237 234 230
350 353 355 351 350 4 18 71 97 225 314 187 251 285 276 346 75 352 5 140 69 111 330 36 135 170 127 116 97 64 145 253 270 102 3 342 284 270 255 229 222 239 226 229 227
348 352 356 347 8 27 64 78 64 29 165 292 144 316 282 337 132 309 8 97 93 88 22 153 155 166 169 118 154 66 181 95 267 319 120 317 281 299 305 252 238 253 248 235 230
344 350 358 0 44 13 60 31 25 168 61 274 287 3 315 42 33 348 8 133 52 146 119 96 177 167 140 146 185 208 98 77 8 17 276 2 285 307 331 294 253 253 237 242 230
337 344 355 22 2 42 335 344 5 333 360 338 320 314 334 108 58 24 5 12 130 139 141 171 150 167 161 98 341 133 84 84 77 88 344 16 81 271 337 316 313 273 246 252 240
323 331 350 355 2 6 345 360 41 44 257 328 298 346 11 14 12 300 48 48 135 104 46 104 183 44 109 94 71 145 106 78 70 96 6 260 153 280 243 237 323 351 319 308 242
306 313 326 328 316 331 347 85 33 136 340 286 264 357 152 20 354 17 69 136 159 82 309 43 92 99 108 106 58 146 76 327 343 11 225 351 358 250 300 271 232 329 8 330 240
285 288 297 294 282 304 347 50 123 239 229 167 157 127 202 0 137 2 60 292 244 94 98 152 303 168 329 119 160 154 157 159 223 234 281 20 234 250 218 292 257 255 266 295 273
267 272 271 265 217 198 73 68 206 201 169 155 87 80 307 5 142 38 215 218 209 181 168 131 261 86 36 147 148 167 158 172 108 77 42 261 285 290 249 259 250 253 257 254 252
237 234 228 211 180 147 101 223 232 199 139 147 181 163 211 240 169 174 178 208 199 174 102 216 67 342 90 147 15 146 150 91 5 204 286 285 279 246 326 264 342 261 241 261 250
191 217 206 174 160 79 207 220 221 220 169 170 194 167 201 194 188 218 230 291 190 137 88 127 99 299 31 212 179 148 180 51 115 150 190 241 256 216 228 248 280 277 283 272 256
157 216 167 153 176 199 186 180 191 179 149 246 228 196 186 166 185 232 220 223 164 160 170 198 141 171 217 319 348 317 201 164 138 224 221 158 263 223 236 254 256 269 270 262 247
217 242 163 142 224 228 266 225 200 153 195 177 210 201 192 174 202 196 207 88 161 172 166 193 248 51 340 347 355 216 206 169 83 70 199 157 252 210 245 249 246 251 256 261 264
244 243 178 201 257 248 191 222 221 217 188 170 190 117 136 181 233 221 225 183 183 200 118 136 147 174 196 200 130 189 196 174 140 138 192 228 268 287 280 276 261 249 249 257 261
205 230 187 201 229 228 210 196 224 220 222 178 219 208 167 198 186 207 230 95 169 213 154 140 210 167 278 127 124 195 165 185 199 213 201 244 228 239 253 265 273 238 239 260 261
278 205 198 247 148 202 214 231 235 222 160 220 224 187 203 224 204 190 174 187 195 143 161 170 223 122 298 186 206 274 231 195 215 235 255 264 272 256 271 285 277 280 262 259 260
246 283 254 215 187 187 217 225 228 227 220 225 210 211 214 230 223 247 148 140 209 162 181 157 142 118 254 117 126 292 222 196 202 198 215 232 247 275 271 255 264 254 239 252 263